| time (UTC) | temp C | wind direction | speed KPH | gust KPH | rain 1hr cm | rain 24hr cm | rain mn cm | humidity % | barometer mb |
| 20260505070902 | 17 | 89 | 11.3 | 12.9 | 0.00 | 0.00 | 0.00 | 87 | 1014.9 |
| 20260505070358 | 17 | 88 | 11.3 | 12.9 | 0.00 | 0.00 | 0.00 | 87 | 1015.1 |
| 20260505065854 | 17 | 100 | 11.3 | 12.9 | 0.00 | 0.00 | 0.00 | 87 | 1015.0 |
| 20260505065351 | 17 | 98 | 12.9 | 14.5 | 0.00 | 0.00 | 0.00 | 87 | 1015.4 |
| 20260505064848 | 17 | 97 | 11.3 | 12.9 | 0.00 | 0.00 | 0.00 | 86 | 1015.2 |
| 20260505064345 | 17 | 89 | 11.3 | 14.5 | 0.00 | 0.00 | 0.00 | 86 | 1015.2 |
| 20260505063844 | 17 | 99 | 14.5 | 14.5 | 0.00 | 0.00 | 0.00 | 86 | 1015.2 |
| 20260505063339 | 18 | 92 | 11.3 | 14.5 | 0.00 | 0.00 | 0.00 | 86 | 1015.4 |
| 20260505062836 | 18 | 89 | 11.3 | 12.9 | 0.00 | 0.00 | 0.00 | 86 | 1015.5 |
| 20260505062333 | 18 | 94 | 11.3 | 12.9 | 0.00 | 0.00 | 0.00 | 86 | 1015.7 |
| 20260505061829 | 18 | 93 | 12.9 | 14.5 | 0.00 | 0.00 | 0.00 | 86 | 1015.6 |
| 20260505061328 | 18 | 96 | 12.9 | 14.5 | 0.00 | 0.00 | 0.00 | 86 | 1015.7 |
| 20260505060825 | 18 | 89 | 9.7 | 12.9 | 0.00 | 0.00 | 0.00 | 86 | 1015.8 |
| 20260505060322 | 18 | 91 | 12.9 | 12.9 | 0.00 | 0.00 | 0.00 | 86 | 1015.7 |
| 20260505055818 | 18 | 91 | 11.3 | 14.5 | 0.00 | 0.00 | 0.00 | 85 | 1015.5 |
| 20260505055314 | 18 | 87 | 11.3 | 14.5 | 0.00 | 0.00 | 0.00 | 85 | 1015.8 |
| 20260505054812 | 18 | 86 | 12.9 | 14.5 | 0.00 | 0.00 | 0.00 | 85 | 1015.8 |
| 20260505054309 | 18 | 89 | 11.3 | 14.5 | 0.00 | 0.00 | 0.00 | 85 | 1015.7 |
| 20260505053807 | 18 | 99 | 12.9 | 14.5 | 0.00 | 0.00 | 0.00 | 84 | 1015.7 |
| 20260505053304 | 18 | 93 | 11.3 | 14.5 | 0.00 | 0.00 | 0.00 | 84 | 1015.9 |
| 20260505052801 | 18 | 85 | 12.9 | 14.5 | 0.00 | 0.00 | 0.00 | 84 | 1015.9 |
| 20260505052258 | 18 | 88 | 11.3 | 12.9 | 0.00 | 0.00 | 0.00 | 83 | 1015.9 |
| 20260505051754 | 18 | 89 | 12.9 | 14.5 | 0.00 | 0.00 | 0.00 | 83 | 1016.0 |
| 20260505051252 | 18 | 93 | 11.3 | 12.9 | 0.00 | 0.00 | 0.00 | 83 | 1016.1 |
| 20260505050750 | 18 | 96 | 12.9 | 12.9 | 0.00 | 0.00 | 0.00 | 83 | 1016.3 |
| 20260505050249 | 18 | 94 | 12.9 | 12.9 | 0.00 | 0.00 | 0.00 | 83 | 1016.4 |
| 20260505041718 | 18 | 89 | 12.9 | 14.5 | 0.00 | 0.00 | 0.00 | 80 | 1016.2 |
| 20260505041215 | 18 | 97 | 14.5 | 16.1 | 0.00 | 0.00 | 0.00 | 79 | 1016.3 |
| 20260505040713 | 18 | 92 | 14.5 | 14.5 | 0.00 | 0.00 | 0.00 | 79 | 1016.5 |
| 20260505040210 | 18 | 104 | 12.9 | 14.5 | 0.00 | 0.00 | 0.00 | 79 | 1016.5 |
| 20260505035706 | 18 | 98 | 12.9 | 14.5 | 0.00 | 0.00 | 0.00 | 79 | 1016.3 |
| 20260505035202 | 18 | 97 | 11.3 | 14.5 | 0.00 | 0.00 | 0.00 | 79 | 1016.4 |
| 20260505034659 | 18 | 93 | 11.3 | 12.9 | 0.00 | 0.00 | 0.00 | 78 | 1016.4 |
| 20260505034156 | 18 | 100 | 14.5 | 14.5 | 0.00 | 0.00 | 0.00 | 78 | 1016.3 |
| 20260505033652 | 18 | 88 | 11.3 | 14.5 | 0.00 | 0.00 | 0.00 | 77 | 1016.2 |
| 20260505033151 | 18 | 98 | 11.3 | 14.5 | 0.00 | 0.00 | 0.00 | 77 | 1016.1 |
| 20260505032648 | 19 | 102 | 12.9 | 14.5 | 0.00 | 0.00 | 0.00 | 77 | 1016.2 |
| 20260505032144 | 19 | 101 | 11.3 | 16.1 | 0.00 | 0.00 | 0.00 | 76 | 1016.3 |
| 20260505031642 | 19 | 89 | 9.7 | 16.1 | 0.00 | 0.00 | 0.00 | 76 | 1016.2 |
| 20260505031138 | 19 | 99 | 14.5 | 17.7 | 0.00 | 0.00 | 0.00 | 76 | 1016.2 |
| 20260505030635 | 19 | 93 | 11.3 | 16.1 | 0.00 | 0.00 | 0.00 | 75 | 1016.2 |
| 20260505030131 | 19 | 98 | 12.9 | 16.1 | 0.00 | 0.00 | 0.00 | 75 | 1016.2 |
| 20260505025627 | 19 | 101 | 12.9 | 16.1 | 0.00 | 0.00 | 0.00 | 75 | 1016.3 |
| 20260505025126 | 19 | 97 | 14.5 | 16.1 | 0.00 | 0.00 | 0.00 | 74 | 1016.4 |
| 20260505024623 | 19 | 91 | 9.7 | 16.1 | 0.00 | 0.00 | 0.00 | 74 | 1016.0 |
| 20260505024120 | 19 | 101 | 11.3 | 17.7 | 0.00 | 0.00 | 0.00 | 74 | 1016.2 |
| 20260505023617 | 20 | 104 | 17.7 | 19.3 | 0.00 | 0.00 | 0.00 | 73 | 1016.0 |
| 20260505023114 | 20 | 93 | 11.3 | 17.7 | 0.00 | 0.00 | 0.00 | 73 | 1015.9 |
| 20260505022612 | 20 | 96 | 12.9 | 16.1 | 0.00 | 0.00 | 0.00 | 72 | 1015.9 |
| 20260505022109 | 20 | 96 | 14.5 | 17.7 | 0.00 | 0.00 | 0.00 | 72 | 1015.8 |
| 20260505021605 | 20 | 110 | 16.1 | 16.1 | 0.00 | 0.00 | 0.00 | 71 | 1015.9 |
| 20260505021102 | 20 | 99 | 11.3 | 17.7 | 0.00 | 0.00 | 0.00 | 71 | 1016.0 |
| 20260505020602 | 20 | 88 | 11.3 | 16.1 | 0.00 | 0.00 | 0.00 | 70 | 1015.8 |
| 20260505020059 | 20 | 100 | 12.9 | 17.7 | 0.00 | 0.00 | 0.00 | 70 | 1015.9 |
| 20260505015556 | 20 | 94 | 12.9 | 16.1 | 0.00 | 0.00 | 0.00 | 70 | 1015.8 |
| 20260505015053 | 20 | 96 | 11.3 | 17.7 | 0.00 | 0.00 | 0.00 | 69 | 1015.8 |
| 20260505014550 | 20 | 93 | 9.7 | 17.7 | 0.00 | 0.00 | 0.00 | 69 | 1015.9 |
| 20260505014047 | 20 | 97 | 11.3 | 14.5 | 0.00 | 0.00 | 0.00 | 69 | 1015.8 |
| 20260505013544 | 20 | 96 | 12.9 | 16.1 | 0.00 | 0.00 | 0.00 | 68 | 1015.7 |
| 20260505013041 | 20 | 92 | 14.5 | 17.7 | 0.00 | 0.00 | 0.00 | 68 | 1016.0 |
| 20260505012539 | 20 | 89 | 12.9 | 16.1 | 0.00 | 0.00 | 0.00 | 67 | 1015.9 |
| 20260505012036 | 20 | 95 | 12.9 | 14.5 | 0.00 | 0.00 | 0.00 | 67 | 1016.0 |
| 20260505011531 | 21 | 103 | 11.3 | 14.5 | 0.00 | 0.00 | 0.00 | 67 | 1015.8 |
| 20260505011029 | 21 | 95 | 9.7 | 17.7 | 0.00 | 0.00 | 0.00 | 66 | 1015.7 |
| 20260505010524 | 21 | 98 | 12.9 | 19.3 | 0.00 | 0.00 | 0.00 | 66 | 1015.7 |
| 20260505010021 | 21 | 118 | 17.7 | 17.7 | 0.00 | 0.00 | 0.00 | 65 | 1015.9 |
| 20260505005517 | 21 | 98 | 9.7 | 16.1 | 0.00 | 0.00 | 0.00 | 65 | 1015.9 |
| 20260505005015 | 21 | 131 | 11.3 | 16.1 | 0.00 | 0.00 | 0.00 | 64 | 1016.0 |
| 20260505004512 | 21 | 102 | 11.3 | 22.5 | 0.00 | 0.00 | 0.00 | 64 | 1015.8 |
| 20260505004008 | 21 | 95 | 14.5 | 17.7 | 0.00 | 0.00 | 0.00 | 64 | 1015.9 |
| 20260505003506 | 21 | 98 | 14.5 | 19.3 | 0.00 | 0.00 | 0.00 | 63 | 1016.0 |
| 20260505003003 | 22 | 108 | 9.7 | 17.7 | 0.00 | 0.00 | 0.00 | 63 | 1015.9 |
| 20260505002458 | 22 | 89 | 12.9 | 17.7 | 0.00 | 0.00 | 0.00 | 63 | 1015.9 |
| 20260505001956 | 22 | 105 | 17.7 | 19.3 | 0.00 | 0.00 | 0.00 | 62 | 1015.8 |
| 20260505001454 | 22 | 99 | 11.3 | 17.7 | 0.00 | 0.00 | 0.00 | 62 | 1015.8 |
| 20260505000950 | 22 | 113 | 11.3 | 20.9 | 0.00 | 0.00 | 0.00 | 61 | 1015.9 |
| 20260505000449 | 22 | 114 | 17.7 | 25.7 | 0.00 | 0.00 | 0.00 | 60 | 1015.9 |
| 20260504235945 | 22 | 131 | 12.9 | 17.7 | 0.00 | 0.00 | 0.00 | 58 | 1015.8 |
| 20260504235442 | 23 | 93 | 9.7 | 16.1 | 0.00 | 0.00 | 0.00 | 58 | 1016.1 |
| 20260504234939 | 23 | 99 | 11.3 | 19.3 | 0.00 | 0.00 | 0.00 | 58 | 1016.1 |
| 20260504234436 | 23 | 114 | 11.3 | 19.3 | 0.00 | 0.00 | 0.00 | 57 | 1015.9 |
| 20260504233932 | 23 | 106 | 11.3 | 14.5 | 0.00 | 0.00 | 0.00 | 57 | 1016.2 |
| 20260504233428 | 23 | 99 | 14.5 | 17.7 | 0.00 | 0.00 | 0.00 | 57 | 1016.3 |
| 20260504232925 | 23 | 101 | 9.7 | 16.1 | 0.00 | 0.00 | 0.00 | 57 | 1016.4 |
| 20260504232422 | 23 | 112 | 14.5 | 22.5 | 0.00 | 0.00 | 0.00 | 56 | 1016.5 |
| 20260504231919 | 23 | 86 | 12.9 | 16.1 | 0.00 | 0.00 | 0.00 | 56 | 1016.8 |
| 20260504231415 | 23 | 102 | 11.3 | 17.7 | 0.00 | 0.00 | 0.00 | 57 | 1016.8 |
| 20260504230912 | 23 | 106 | 16.1 | 17.7 | 0.00 | 0.00 | 0.00 | 56 | 1016.7 |
| 20260504230409 | 24 | 117 | 16.1 | 25.7 | 0.00 | 0.00 | 0.00 | 55 | 1016.7 |
| 20260504225908 | 24 | 99 | 14.5 | 20.9 | 0.00 | 0.00 | 0.00 | 54 | 1016.6 |
| 20260504225404 | 24 | 110 | 20.9 | 22.5 | 0.00 | 0.00 | 0.00 | 54 | 1016.8 |
| 20260504224902 | 24 | 94 | 11.3 | 17.7 | 0.00 | 0.00 | 0.00 | 55 | 1016.7 |
| 20260504224358 | 24 | 143 | 9.7 | 30.6 | 0.00 | 0.00 | 0.00 | 53 | 1016.8 |
| 20260504223855 | 24 | 108 | 16.1 | 22.5 | 0.00 | 0.00 | 0.00 | 54 | 1016.9 |
| 20260504223356 | 23 | 106 | 14.5 | 22.5 | 0.00 | 0.00 | 0.00 | 53 | 1016.7 |
| 20260504222852 | 24 | 110 | 14.5 | 24.1 | 0.00 | 0.00 | 0.00 | 52 | 1016.8 |
| 20260504222349 | 24 | 129 | 14.5 | 16.1 | 0.00 | 0.00 | 0.00 | 53 | 1016.8 |
| 20260504221848 | 24 | 107 | 12.9 | 22.5 | 0.00 | 0.00 | 0.00 | 52 | 1016.9 |
| 20260504221344 | 25 | 132 | 14.5 | 16.1 | 0.00 | 0.00 | 0.00 | 53 | 1016.8 |
| 20260504220841 | 25 | 112 | 11.3 | 17.7 | 0.00 | 0.00 | 0.00 | 52 | 1016.9 |
| 20260504220338 | 24 | 96 | 11.3 | 16.1 | 0.00 | 0.00 | 0.00 | 53 | 1017.1 |
| 20260504215835 | 25 | 105 | 12.9 | 22.5 | 0.00 | 0.00 | 0.00 | 52 | 1017.0 |
| 20260504215331 | 25 | 103 | 8.0 | 14.5 | 0.00 | 0.00 | 0.00 | 50 | 1017.0 |
| 20260504214827 | 25 | 108 | 11.3 | 17.7 | 0.00 | 0.00 | 0.00 | 51 | 1017.2 |
| 20260504214325 | 25 | 107 | 16.1 | 17.7 | 0.00 | 0.00 | 0.00 | 51 | 1017.3 |
| 20260504213821 | 25 | 103 | 11.3 | 14.5 | 0.00 | 0.00 | 0.00 | 50 | 1017.4 |
| 20260504213317 | 25 | 125 | 11.3 | 20.9 | 0.00 | 0.00 | 0.00 | 50 | 1017.3 |
| 20260504212815 | 25 | 116 | 14.5 | 17.7 | 0.00 | 0.00 | 0.00 | 50 | 1017.4 |
| 20260504212311 | 25 | 125 | 11.3 | 17.7 | 0.00 | 0.00 | 0.00 | 48 | 1017.7 |
| 20260504211809 | 25 | 120 | 12.9 | 17.7 | 0.00 | 0.00 | 0.00 | 49 | 1017.7 |
| 20260504211304 | 25 | 115 | 11.3 | 17.7 | 0.00 | 0.00 | 0.00 | 49 | 1017.6 |
| 20260504210802 | 25 | 126 | 16.1 | 22.5 | 0.00 | 0.00 | 0.00 | 49 | 1017.4 |
| 20260504210259 | 25 | 117 | 8.0 | 19.3 | 0.00 | 0.00 | 0.00 | 49 | 1017.7 |
| 20260504205756 | 24 | 136 | 12.9 | 17.7 | 0.00 | 0.00 | 0.00 | 49 | 1017.6 |
| 20260504205254 | 25 | 114 | 14.5 | 22.5 | 0.00 | 0.00 | 0.00 | 49 | 1017.6 |
| 20260504204752 | 25 | 95 | 11.3 | 17.7 | 0.00 | 0.00 | 0.00 | 50 | 1018.0 |
| 20260504204250 | 25 | 109 | 12.9 | 25.7 | 0.00 | 0.00 | 0.00 | 47 | 1018.1 |
| 20260504203749 | 25 | 117 | 12.9 | 16.1 | 0.00 | 0.00 | 0.00 | 49 | 1017.9 |
| 20260504203246 | 25 | 152 | 16.1 | 19.3 | 0.00 | 0.00 | 0.00 | 48 | 1017.9 |
| 20260504202741 | 25 | 122 | 8.0 | 17.7 | 0.00 | 0.00 | 0.00 | 48 | 1018.0 |
| 20260504202239 | 25 | 109 | 11.3 | 14.5 | 0.00 | 0.00 | 0.00 | 49 | 1018.1 |
| 20260504201736 | 25 | 159 | 11.3 | 19.3 | 0.00 | 0.00 | 0.00 | 48 | 1018.5 |
| 20260504201233 | 25 | 113 | 11.3 | 19.3 | 0.00 | 0.00 | 0.00 | 48 | 1018.4 |
| 20260504200731 | 25 | 116 | 11.3 | 24.1 | 0.00 | 0.00 | 0.00 | 48 | 1018.5 |
| 20260504200226 | 25 | 112 | 12.9 | 22.5 | 0.00 | 0.00 | 0.00 | 49 | 1018.6 |
| 20260504195723 | 25 | 131 | 9.7 | 16.1 | 0.00 | 0.00 | 0.00 | 47 | 1018.7 |
| 20260504195219 | 25 | 112 | 19.3 | 20.9 | 0.00 | 0.00 | 0.00 | 48 | 1018.7 |
| 20260504194716 | 25 | 130 | 6.4 | 19.3 | 0.00 | 0.00 | 0.00 | 47 | 1018.8 |
| 20260504194212 | 25 | 124 | 12.9 | 16.1 | 0.00 | 0.00 | 0.00 | 49 | 1018.9 |
| 20260504193709 | 25 | 88 | 11.3 | 20.9 | 0.00 | 0.00 | 0.00 | 49 | 1018.9 |
| 20260504193206 | 25 | 107 | 12.9 | 19.3 | 0.00 | 0.00 | 0.00 | 49 | 1018.8 |
| 20260504192704 | 24 | 103 | 11.3 | 16.1 | 0.00 | 0.00 | 0.00 | 48 | 1019.2 |
| 20260504192202 | 25 | 147 | 16.1 | 17.7 | 0.00 | 0.00 | 0.00 | 47 | 1019.1 |
| 20260504191701 | 25 | 139 | 14.5 | 27.4 | 0.00 | 0.00 | 0.00 | 48 | 1019.2 |
| 20260504191156 | 25 | 109 | 11.3 | 29.0 | 0.00 | 0.00 | 0.00 | 48 | 1019.2 |
| 20260504190652 | 25 | 118 | 11.3 | 17.7 | 0.00 | 0.00 | 0.00 | 47 | 1019.2 |
| 20260504190149 | 25 | 105 | 14.5 | 25.7 | 0.00 | 0.00 | 0.00 | 47 | 1019.3 |
| 20260504185645 | 24 | 129 | 12.9 | 17.7 | 0.00 | 0.00 | 0.00 | 47 | 1019.4 |
| 20260504185142 | 25 | 114 | 12.9 | 24.1 | 0.00 | 0.00 | 0.00 | 47 | 1019.2 |
| 20260504184638 | 25 | 127 | 17.7 | 25.7 | 0.00 | 0.00 | 0.00 | 48 | 1019.4 |
| 20260504184133 | 25 | 109 | 12.9 | 20.9 | 0.00 | 0.00 | 0.00 | 49 | 1019.4 |
| 20260504183631 | 25 | 140 | 9.7 | 14.5 | 0.00 | 0.00 | 0.00 | 47 | 1019.5 |
| 20260504183128 | 24 | 131 | 11.3 | 19.3 | 0.00 | 0.00 | 0.00 | 49 | 1019.5 |
| 20260504182626 | 24 | 120 | 14.5 | 20.9 | 0.00 | 0.00 | 0.00 | 50 | 1019.4 |
| 20260504182123 | 24 | 137 | 8.0 | 17.7 | 0.00 | 0.00 | 0.00 | 49 | 1019.6 |
| 20260504181620 | 24 | 116 | 11.3 | 16.1 | 0.00 | 0.00 | 0.00 | 49 | 1019.7 |
| 20260504181118 | 24 | 138 | 9.7 | 22.5 | 0.00 | 0.00 | 0.00 | 50 | 1019.4 |
| 20260504180617 | 24 | 130 | 12.9 | 20.9 | 0.00 | 0.00 | 0.00 | 49 | 1019.6 |
| 20260504180115 | 24 | 112 | 12.9 | 17.7 | 0.00 | 0.00 | 0.00 | 49 | 1019.4 |
| 20260504175612 | 24 | 120 | 14.5 | 20.9 | 0.00 | 0.00 | 0.00 | 49 | 1019.8 |
| 20260504175109 | 24 | 182 | 9.7 | 19.3 | 0.00 | 0.00 | 0.00 | 49 | 1020.0 |
| 20260504174607 | 25 | 127 | 11.3 | 24.1 | 0.00 | 0.00 | 0.00 | 47 | 1019.7 |
| 20260504174103 | 24 | 114 | 14.5 | 29.0 | 0.00 | 0.00 | 0.00 | 48 | 1019.9 |
| 20260504173600 | 24 | 122 | 14.5 | 20.9 | 0.00 | 0.00 | 0.00 | 47 | 1020.1 |
| 20260504173058 | 25 | 126 | 12.9 | 20.9 | 0.00 | 0.00 | 0.00 | 47 | 1020.2 |
| 20260504172553 | 23 | 117 | 9.7 | 20.9 | 0.00 | 0.00 | 0.00 | 51 | 1020.4 |
| 20260504172050 | 25 | 133 | 8.0 | 17.7 | 0.00 | 0.00 | 0.00 | 49 | 1020.3 |
| 20260504171546 | 23 | 99 | 20.9 | 24.1 | 0.00 | 0.00 | 0.00 | 50 | 1020.5 |
| 20260504171044 | 24 | 108 | 16.1 | 25.7 | 0.00 | 0.00 | 0.00 | 49 | 1020.5 |
| 20260504170540 | 24 | 131 | 11.3 | 20.9 | 0.00 | 0.00 | 0.00 | 48 | 1020.5 |
| 20260504150923 | 23 | 120 | 11.3 | 19.3 | 0.00 | 0.00 | 0.00 | 46 | 1020.9 |
| 20260504150420 | 23 | 129 | 11.3 | 17.7 | 0.00 | 0.00 | 0.00 | 46 | 1020.9 |
| 20260504140841 | 21 | 115 | 12.9 | 14.5 | 0.00 | 0.00 | 0.00 | 60 | 1021.0 |
| 20260504140337 | 21 | 106 | 12.9 | 19.3 | 0.00 | 0.00 | 0.00 | 62 | 1020.9 |
| 20260504130806 | 19 | 97 | 11.3 | 14.5 | 0.00 | 0.00 | 0.00 | 71 | 1021.0 |
| 20260504130302 | 19 | 103 | 9.7 | 12.9 | 0.00 | 0.00 | 0.00 | 71 | 1020.9 |
| 20260504120226 | 15 | 87 | 12.9 | 14.5 | 0.00 | 0.00 | 0.00 | 97 | 1020.4 |
| 20260504110653 | 12 | 79 | 12.9 | 14.5 | 0.00 | 0.00 | 0.00 | 98 | 1020.0 |
| 20260504110149 | 12 | 78 | 14.5 | 14.5 | 0.00 | 0.00 | 0.00 | 98 | 1019.9 |
| 20260504100609 | 12 | 84 | 12.9 | 14.5 | 0.00 | 0.00 | 0.00 | 97 | 1020.2 |
| 20260504100108 | 12 | 87 | 12.9 | 14.5 | 0.00 | 0.00 | 0.00 | 97 | 1020.1 |
| 20260504082003 | 13 | 88 | 12.9 | 12.9 | 0.00 | 0.00 | 0.00 | 94 | 1020.7 |
| 20260504081501 | 13 | 89 | 12.9 | 14.5 | 0.00 | 0.00 | 0.00 | 94 | 1020.6 |
| 20260504080955 | 13 | 88 | 12.9 | 16.1 | 0.00 | 0.00 | 0.00 | 94 | 1021.0 |
| 20260504080452 | 13 | 83 | 14.5 | 14.5 | 0.00 | 0.00 | 0.00 | 94 | 1020.7 |